Chongqing, China

9:32 AM CST on November 20, 2019 (GMT +0800)
Jiangbei

Weather History for ZUCK - September, 2019

Change the Weather History Date:

Sunday, September 8, 2019

  Actual Average Record
Temperature  
Mean Temperature 76 °F -  
Max Temperature 80 °F - - ()
Min Temperature 73 °F - - ()
Cooling Degree Days 12    
Growing Degree Days 26 (Base 50)    
Moisture  
Dew Point 75 °F    
Average Humidity 90    
Maximum Humidity 100    
Minimum Humidity 78    
Precipitation  
Precipitation 1.77 in - - ()
Sea Level Pressure  
Sea Level Pressure 29.63 in    
Wind  
Wind Speed 7 mph ()    
Max Wind Speed 13 mph    
Max Gust Speed -    
Visibility 3.6 miles    
Events Rain    
T = Trace of Precipitation, MM = Missing Value Source: Averaged Metar Reports

Daily Weather History Graph

Daily Weather History Graph

Search for Another Location

Airport or City:

Astronomy

Sep. 08, 2019 Rise Set
Actual Time 6:34 AM CST 7:08 PM CST
Civil Twilight 6:09 AM CST 7:32 PM CST
Nautical Twilight 5:41 AM CST 8:00 PM CST
Astronomical Twilight 5:12 AM CST 8:29 PM CST
Moon 3:27 PM CST (9/8) 1:07 AM CST (9/8)
Length of Visible Light 13h 22m
Length of Day
12h 34m
Waxing Gibbous, 70% of the Moon is Illuminated
Sep 8
Waxing Gibbous
Sep 14
Full
Sep 22
Last Quarter
Sep 29
New
Oct 6
First Quarter

Hourly Weather History & Observations

Time (CST) Temp. Heat Index Dew Point Humidity Pressure Visibility Wind Dir Wind Speed Gust Speed Precip Events Conditions
12:00 AM 77.0 °F - 77.0 °F 100% 29.68 in 3.7 mi North 8.9 mph - N/A   Unknown
1:00 AM 77.0 °F - 75.2 °F 94% 29.65 in 3.1 mi NNE 6.7 mph - N/A   Mist
2:00 AM 78 °F - 76 °F 91% 29.58 in 1 mi NW 2.2 mph - - Rain Rain
2:00 AM 77.0 °F - 75.2 °F 94% 29.65 in 2.8 mi ENE 4.5 mph - N/A Rain Light Rain
3:00 AM 75.2 °F - 75.2 °F 100% 29.65 in 3.1 mi NNE 6.7 mph - N/A Rain Light Rain
4:00 AM 75.2 °F - 75.2 °F 100% 29.65 in 3.1 mi NNE 6.7 mph - N/A Rain Light Rain
5:00 AM 77 °F - 74 °F 88% 29.57 in 2 mi ESE 2.2 mph - - Rain Light Rain
5:00 AM 75.2 °F - 73.4 °F 94% 29.65 in 3.1 mi NNE 8.9 mph - N/A Rain Light Rain
6:00 AM 73.4 °F - 73.4 °F 100% 29.65 in 3.7 mi North 11.2 mph - N/A   Overcast
7:00 AM 73.4 °F - 73.4 °F 100% 29.65 in 2.5 mi NNE 11.2 mph - N/A Rain Light Rain
8:00 AM 75.2 °F - 73.4 °F 94% 29.65 in 3.1 mi NNE 13.4 mph - N/A   Overcast
9:00 AM 75.2 °F - 73.4 °F 94% 29.68 in 3.7 mi NNE 13.4 mph - N/A   Overcast
10:00 AM 75.2 °F - 73.4 °F 94% 29.68 in 4.3 mi NNE 11.2 mph - N/A   Scattered Clouds
11:00 AM 78 °F - 73 °F 81% 29.61 in 3 mi ESE 2.2 mph - - Rain Light Rain
11:00 AM 77.0 °F - 75.2 °F 94% 29.68 in 5.0 mi NNE 13.4 mph - N/A   Scattered Clouds
12:00 PM 78.8 °F - 75.2 °F 89% 29.68 in 6.2 mi NNE 11.2 mph - N/A   Scattered Clouds
1:00 PM 77.0 °F - 75.2 °F 94% 29.65 in 6.2 mi NNE 8.9 mph - N/A   Scattered Clouds
2:00 PM 79 °F - 74 °F 79% 29.56 in 3 mi ENE 2.2 mph - - Rain Light Rain
2:00 PM 80.6 °F 86.2 °F 75.2 °F 84% 29.62 in 6.2 mi NE 11.2 mph - N/A   Scattered Clouds
3:00 PM 80.6 °F 86.2 °F 75.2 °F 84% 29.62 in 4.3 mi East 8.9 mph - N/A   Scattered Clouds
4:00 PM 80.6 °F 85.4 °F 73.4 °F 79% 29.59 in 3.7 mi ENE 8.9 mph - N/A   Scattered Clouds
5:00 PM 80 °F - 74 °F 78% 29.54 in - NE 2.2 mph - -   Mist
5:00 PM 80.6 °F 86.2 °F 75.2 °F 84% 29.59 in 3.7 mi NE 8.9 mph - N/A   Scattered Clouds
6:00 PM 80.6 °F 86.2 °F 75.2 °F 84% 29.59 in 5.0 mi NE 8.9 mph - N/A   Unknown
7:00 PM 78.8 °F - 73.4 °F 83% 29.62 in 5.0 mi NNE 8.9 mph - N/A   Scattered Clouds
8:00 PM 79 °F - 75 °F 83% 29.57 in 1 mi SSE 6.7 mph - - Rain Rain
8:00 PM 77.0 °F - 75.2 °F 94% 29.65 in 5.0 mi NNE 8.9 mph - N/A Rain Light Rain
9:00 PM 77.0 °F - 75.2 °F 94% 29.65 in 5.0 mi NE 8.9 mph - N/A Rain Light Rain Showers
11:00 PM 77 °F - 75 °F 93% 29.61 in 0 mi East 2.2 mph - - Rain Rain